Weather History for Naples, FL

Change the Weather History Date:

Saturday, March 30, 2013

  Actual Average Record
Temperature  
Mean Temperature 19 °C 22 °C  
Max Temperature 26 °C 27 °C 31 °C (2002)
Min Temperature 12 °C 16 °C 5 °C (1955)
Degree Days  
Heating Degree Days 0 0  
Month to date heating degree days 88 19  
Since 1 July heating degree days 182 252  
Cooling Degree Days 1 7  
Month to date cooling degree days 59 166  
Year to date cooling degree days 387 357  
Growing Degree Days 15 (Base 50)    
Moisture  
Dew Point 11 °C    
Average Humidity 62    
Maximum Humidity 86    
Minimum Humidity 38    
Precipitation  
Precipitation 0.00 mm 2.54 mm 3.76 mm (1958)
Month to date precipitation 0.62 2.28  
Year to date precipitation 2.44 6.23  
Snow  
Snow 0.00 cm - - ()
Month to date snowfall 0.0  
Since 1 July snowfall 0.0  
Snow Depth 0.00 cm    
Sea Level Pressure  
Sea Level Pressure 1023 hPa    
Wind  
Wind Speed 9 km/h (ESE)    
Max Wind Speed 26 km/h    
Max Gust Speed 34 km/h    
Visibility 16 kilometers    
Events      
T = Trace of Precipitation, MM = Missing Value Source: NWS Daily Summary

Daily Weather History Graph

Daily Weather History Graph

Search for Another Location

Airport:

Trip Planner

Search our weather history database for the weather conditions in past years. The results will help you decide how hot, cold, wet, or windy it might be!

Date:

Astronomy

Mar. 30, 2013 Rise Set
Actual Time 7:20 AM EDT 7:43 PM EDT
Civil Twilight 6:56 AM EDT 8:06 PM EDT
Nautical Twilight 6:29 AM EDT 8:33 PM EDT
Astronomical Twilight 6:02 AM EDT 9:00 PM EDT
Moon 11:24 PM EDT (3/30) 9:35 AM EDT (3/30)
Length of Visible Light 13h 09m
Length of Day
12h 23m
Waning Gibbous, 86% of the Moon is Illuminated
Mar 30
Waning Gibbous
Apr 3
Last Quarter
Apr 10
New
Apr 18
First Quarter
Apr 25
Full

Hourly Weather History & Observations

Time (EDT) Temp. Dew Point Humidity Pressure Visibility Wind Dir Wind Speed Gust Speed Precip Events Conditions
12:53 AM 15.0 °C 9.4 °C 69% 1023.6 hPa 16.1 km ESE 7.4 km/h / 2.1 m/s - N/A   Clear
1:53 AM 13.9 °C 10.6 °C 81% 1023.3 hPa 16.1 km East 7.4 km/h / 2.1 m/s - N/A   Clear
2:53 AM 14.4 °C 10.6 °C 78% 1023.5 hPa 16.1 km Calm Calm - N/A   Clear
3:53 AM 13.3 °C 9.4 °C 77% 1023.3 hPa 14.5 km NE 5.6 km/h / 1.5 m/s - N/A   Scattered Clouds
4:53 AM 13.3 °C 10.0 °C 80% 1022.8 hPa 14.5 km ENE 5.6 km/h / 1.5 m/s - N/A   Mostly Cloudy
5:53 AM 13.3 °C 10.6 °C 84% 1022.9 hPa 12.9 km Calm Calm - N/A   Clear
6:53 AM 12.8 °C 10.0 °C 83% 1023.3 hPa 16.1 km ENE 5.6 km/h / 1.5 m/s - N/A   Clear
7:53 AM 13.9 °C 10.6 °C 81% 1023.9 hPa 16.1 km East 7.4 km/h / 2.1 m/s - N/A   Clear
8:53 AM 17.8 °C 11.1 °C 65% 1024.6 hPa 16.1 km East 11.1 km/h / 3.1 m/s - N/A   Clear
9:53 AM 20.6 °C 10.6 °C 53% 1024.7 hPa 16.1 km East 13.0 km/h / 3.6 m/s - N/A   Clear
10:53 AM 22.2 °C 11.1 °C 49% 1024.7 hPa 16.1 km ESE 16.7 km/h / 4.6 m/s - N/A   Scattered Clouds
11:53 AM 23.9 °C 9.4 °C 40% 1024.3 hPa 16.1 km SE 13.0 km/h / 3.6 m/s - N/A   Scattered Clouds
12:53 PM 24.4 °C 10.0 °C 40% 1023.6 hPa 16.1 km East 11.1 km/h / 3.1 m/s - N/A   Partly Cloudy
1:53 PM 23.9 °C 11.1 °C 44% 1022.5 hPa 16.1 km SW 22.2 km/h / 6.2 m/s 29.6 km/h / 8.2 m/s N/A   Clear
2:53 PM 23.9 °C 11.7 °C 46% 1021.7 hPa 16.1 km SW 24.1 km/h / 6.7 m/s - N/A   Clear
3:53 PM 22.8 °C 12.2 °C 51% 1021.2 hPa 16.1 km West 16.7 km/h / 4.6 m/s - N/A   Clear
4:53 PM 23.3 °C 12.2 °C 50% 1020.9 hPa 16.1 km West 14.8 km/h / 4.1 m/s - N/A   Partly Cloudy
5:53 PM 22.2 °C 11.7 °C 51% 1020.6 hPa 16.1 km West 11.1 km/h / 3.1 m/s - N/A   Clear
6:53 PM 21.7 °C 11.7 °C 53% 1020.7 hPa 16.1 km SW 9.3 km/h / 2.6 m/s - N/A   Clear
7:53 PM 20.6 °C 12.2 °C 58% 1021.1 hPa 16.1 km WSW 5.6 km/h / 1.5 m/s - N/A   Clear
8:53 PM 20.0 °C 12.2 °C 61% 1021.5 hPa 16.1 km Calm Calm - N/A   Clear
9:53 PM 18.3 °C 13.3 °C 73% 1021.9 hPa 16.1 km Calm Calm - N/A   Clear
10:53 PM 17.8 °C 12.8 °C 73% 1022.5 hPa 16.1 km Calm Calm - N/A   Clear
11:53 PM 16.1 °C 13.3 °C 83% 1022.8 hPa 16.1 km East 9.3 km/h / 2.6 m/s - N/A   Clear